Погода в Тимшере

Россия / Республика Коми     61°53′58″N   55°06′50″E
темп.,
°C
ветер,
м/с
пор.,
м/с
влажн.,
%
обл.,
%
осадки,
мм/ч
давл.,
гПа
погр.,
м
30 июня, чт
чт3000:00+6с3107162 0.0 1013607
03:00+4с4108222 0.0 1014779
06:00+5ссв4972100 0.0 1014637
09:00+9св5860100 0.0 10151420
12:00+11ссв465099 0.1 10151760
15:00+14св564080 0.1 10152095
18:00+14св374897 0.0 10161594
21:00+9вюв227189 0.0 101722
1 июля, пт
пт100:00+8з1180100 0.0 101816
03:00+6сз248515 0.0 101966
06:00+13ссз235532 0.0 1018380
09:00+17ссз344078 0.0 10181413
12:00+19ссз343422 0.0 10171798
15:00+21сз34336 0.0 10152093
18:00+20сз13433 0.0 1014174
21:00+13з226747 0.0 101313
2 июля, сб
сб200:00+11з2372100 0.0 101353
03:00+13ссз3870100 0.0 1013304
06:00+12ссз2597100 1.0 1013271
09:00+12ссз259499 1.0 1014382
12:00+15с3479100 0.1 1014798
15:00+15ссз3571100 0.1 1014879
18:00+14ссз3776100 0.0 1015677
21:00+12с377975 0.0 1015492
3 июля, вс
вс300:00+8ссз2797100 0.0 1015139
03:00+9ссз279527 0.0 1015157
06:00+15с3668100 0.0 1014544
09:00+18ссв464823 0.0 10141644
12:00+21ссв463662 0.0 10132495
15:00+21св353894 0.0 10131758
18:00+19юв224971 0.0 1013343
21:00+13ссз1172100 0.0 101410
4 июля, пн
пн400:00+10с117628 0.0 101510
03:00+10ссз117519 0.0 101511
06:00+16сз235435 0.0 1015333
09:00+21сз34385 0.0 10141638
12:00+24сз34320 0.0 10131972
15:00+25сз35295 0.0 10122223
18:00+24зсз23455 0.0 1011123
21:00+17зюз22675 0.0 101121